Location: Mountain_View
(35.6670°N, 81.4000°W)
Time: 13:02:19
(UTC-05:00)

LightSail 2 - Visible Passes

Search period start: 19 November 2019 00:00
Search period end: 29 November 2019 00:00
Orbit: 700 x 727 km, 24.0° (Epoch: 17 November)

Date Brightness Start Highest point End Pass type
(mag) Time Alt. Az. Time Alt. Az. Time Alt. Az.
19 Nov 7.5 04:30:36 13° SSE 04:30:36 13° SSE 04:31:49 10° SSE visible
27 Nov 7.7 19:46:29 10° SSW 19:46:55 11° S 19:46:55 11° S visible
28 Nov 7.5 18:50:08 10° S 18:51:05 10° SSE 18:52:01 10° SSE visible
